BREEZE-KM DEB, 41723

Orbit data source: Space-Track

BREEZE-KM DEB, 41723 is space debris in LEO originally from a launch on Tue, 31 Mar 2015 UTC launched from the Plesetsk Missile And Space Complex (PKMTR). Debris objects in space refer to the collection of defunct objects orbiting the Earth. Examples of debris include non-operational satellites, rocket bodies, and fragments generated from explosions, collisions, or faulty payload assembly.

Loading next visibility...
Identifier
41723, 2015-020L
Orbit
LEO
Country
Flag of CISCIS
Related business
Manufacturer
Khrunichev
Mission
Spacecraft
Bus & Motor
Unknown
Mass
Unknown
Launch date (UTC)
2015-03-31 (11 years ago)
Launch vehicle
Unknown
Launch site
Plesetsk Missile And Space Complex (PKMTR)
Object type
Payload
Rocket body
Debris
Shape & HBR
Unknown shape, 0.1 m
Radar Cross Section
Small (<0.1 m²)

Expand to show TLE details & history
Last TLE update: 3 days ago

TLE from 3 days ago
0 BREEZE-KM DEB
1 41723U 15020L   26204.48986802  .00000257  00000-0  80471-3 0  9991
2 41723  82.4901 123.6044 0219403 135.6164 226.2766 12.92939905504029
Epoch: 2026-07-23T11:45Z
TLE epoch observation values (Epoch: 2026-07-23T11:45:24.596Z)
Latitude
-0.00004°
Longitude
6.0218°
Altitude
1,410.842 km
Speed
7.1 km/s
True Right ascension
08h 14m 25s
True Declination
0° 00' 00"
Sunlit
Object was in daylight at epoch
Visualization orbit readout
Latitude
Unknown
Longitude
Unknown
Altitude
Unknown
Speed
Unknown
Apparent Right ascension
Unknown
Apparent Declination
Unknown
Sunlit
N/A
Visualization observer readout
Local Sidereal Time
16:10:42
Azimuth
Unknown
Elevation
Unknown
Doppler factor
Unknown
Orbital elements
Apogee altitude
1,455.336 km
Perigee altitude
1,118.978 km
Semi-major axis
7,665.294 km
Eccentricity
0.02194
Inclination
82.4901°
RAAN
123.6044°
Arg. of periapsis
135.6164°
True anomaly
224.49376°
Mean anomaly
226.2766°
Eccentric anomaly
225.3818°
Mean motion
3.23407 °/min
Orbital period
111.31 mins
BSTAR
0.00080471
Loading maneuver chart data...
Computing Atmospheric mass density...
Loading historical data...
Loading historical data...
Loading historical data...
Loading historical data...
Loading historical data...
Loading historical data...
Loading historical data...

Documentation

Showing up to 5 results
|